INTERCOSMOS 24

Last updated on Thu Oct 30 2025 00:02:15 GMT+0000 (Coordinated Universal Time)

1 20261U 89080A 25302.40941795 .00000687 00000+0 20357-3 0 9997 2 20261 82.6100 189.7777 1187579 237.3867 110.7170 12.59345760650279
UTC large
Height (km)
Speed (km/s)
/
Latitude / Longitude
Inclination (degrees)
Orbital Period (minutes)
Azimuth
Elevation
Range (km)
Doppler Factor

Next 0 passes for location: London (51.5072 / 0.1276)

Sorry there are no passes over London.